2019-096D (44908 NORAD) Tracking and Keplerian Element Data

This shows tracking and keplerian element data for the satellite.

Feedback or suggestion? Click here.




ElementValue
Catalog44908
Name2019-096D
Epoch Orbit336
Epoch Day23.11989658
Epoch Year2020
RAAN93.5484
Inclination82.5319
Eccentricity0.0004186
Argument of Perigee260.5996
Mean Anonmoly99.4596
Mean Motion12.40786829
Decay Rate4E-07
L11 44908U 19096D 20023.11989658 .00000040 00000-0 22157-3 0 9998
L22 44908 82.5319 93.5484 0004186 260.5996 99.4596 12.40786829 3365

Live tracking and technical data element details for 2019-096D (NORAD 44908). 2019-096D can be tracked NOW for your location showing map with azimuth and elevation plus other details from your city location.

Track the satellite on the map from your city or location and see movement details for azimuth, elevation, latitude, longitude, range, height, and movement on the map or in text.







IsCatalogInMostPopularTable: catalog: 44908, numindb: 4
Update: records affected: 1



GetName: 44908 2019-096D

Hit Count: updated at: Fri, 24 Jan 2020 11:40:27 GMT